Location: Melque
(41.0517°N, 4.4694°W)
Time: 18:48:58
(UTC+00:00)

IRAS Rocket - Visible Passes

Search period start: 07 March 2026 00:00
Search period end: 17 March 2026 00:00
Orbit: 845 x 875 km, 100.1° (Epoch: 7 March)

Date Brightness Start Highest point End Pass type
(mag) Time Alt. Az. Time Alt. Az. Time Alt. Az.
7 Mar 4.2 19:44:55 10° SSE 19:50:32 90° WSW 19:56:11 10° NNW visible
7 Mar 7.1 21:30:09 10° WSW 21:31:57 11° W 21:33:46 10° WNW visible
8 Mar 4.2 19:35:57 10° SSE 19:41:33 76° ENE 19:47:10 10° NNW visible
8 Mar 6.9 21:19:52 10° SW 21:22:50 14° W 21:25:48 10° WNW visible
9 Mar 4.2 19:27:02 10° SSE 19:32:34 63° ENE 19:38:07 10° N visible
9 Mar 6.7 21:10:02 10° SW 21:13:43 18° W 21:17:25 10° NW visible
10 Mar 4.4 19:18:12 10° SE 19:23:37 53° ENE 19:29:03 10° N visible
10 Mar 6.5 21:00:25 10° SW 21:04:37 22° W 21:08:51 10° NW visible
11 Mar 4.6 19:09:24 10° SE 19:14:40 44° ENE 19:19:57 10° N visible
11 Mar 6.2 20:50:55 10° SSW 20:55:32 26° W 21:00:10 10° NW visible
12 Mar 4.8 19:00:40 10° SE 19:05:44 37° ENE 19:10:49 10° N visible
12 Mar 5.9 20:41:32 10° SSW 20:46:27 31° W 20:51:24 10° NW visible
13 Mar 5.1 18:51:59 10° SE 18:56:49 31° ENE 19:01:39 10° N visible
13 Mar 5.6 20:32:13 10° SSW 20:37:24 38° W 20:42:36 10° NNW visible
14 Mar 5.3 18:43:22 10° ESE 18:47:55 26° ENE 18:52:27 10° N visible
14 Mar 5.2 20:23:00 10° S 20:28:21 46° W 20:33:43 10° NNW visible
15 Mar 4.9 20:13:50 10° S 20:19:19 56° WSW 20:24:49 10° NNW visible
16 Mar 4.6 20:04:44 10° S 20:10:18 68° WSW 20:15:53 10° NNW visible
